1st November 2019 | Cape Town, South Africa

FNB Wines2Whales Shiraz (2019)

Stage 1 Teams: Men - Open

Pos Team Name # Members Team Time Overall Pos
1 NAD MTB 2 02:40:47 1
2 Pyga Eurosteel 2 02:40:48 2
3 DSV PRO CYCLING 2 02:40:48 3
4 Jaguar Power Products 2 02:45:44 4
5 SPOT Africa DEVMCO Umhlanga Arch 2 02:48:18 5
6 Devonbosch Stellenbosch 2 02:50:20 6
7 Canyon Werner 2 02:53:03 7
8 PYGA Euro Steel 2 2 02:53:48 8
9 Valley Electrical Titan Racing 2 02:54:02 9
10 NFB Spine & Sport 2 02:56:26 10
11 Woodstock Boys 2 03:00:35 14
12 BMT Fairtree 2 03:01:32 15
13 Exxaro / PwC1 2 03:04:36 18
14 Flying Venters 2 03:04:52 19
15 Imbuko Giant 2 03:06:21 20
16 FNB Change a Life 2 03:07:12 21
17 Bell’s cycling 2 03:08:06 22
18 FNB Change a Life 1 2 03:08:48 23
19 Exxaro / RMB1 2 03:08:48 24
20 FNB Change a Life 4 2 03:09:44 27
21 Suck my wheel 2 03:14:54 36
22 FNB Change a Life 2 2 03:15:27 38
23 Exxaro / Pepto 2 03:15:31 39
24 CANYON 2 03:17:46 42
25 FXTM-VELOKHAYA 2 2 03:17:56 43
26 Exxaro / Deloitte 2 03:22:33 52
27 Jacques Hau 2 03:25:24 57
28 firstAscent 2 03:27:36 61
29 BMT Fairtree 2 2 03:28:28 64
30 Polyoak 2 03:28:53 65
31 Zamalek 2 03:30:31 68
32 FXTM-VELOKHAYA 2 03:33:46 72
33 Exxaro / DMA 2 03:40:29 91
34 Team Ashburton 2 03:43:23 95
35 Kinetic Racing Snakes 2 03:44:32 96
36 HERSEL DOGS 2 03:48:02 108
37 RA 2 03:49:11 110
38 Fritze and Rapha 2 03:49:38 113
39 USN Two 2 03:49:40 114
40 ThomasTheRaceEngine 2 03:50:37 117
41 Versus Socks 2 03:51:40 121
42 Bootleggers 2 03:52:01 122
43 DotCloud 2 03:52:24 124
44 Team Sarus 2 03:52:50 126
45 Team Sisu 2 03:52:55 127
46 Cold Distrubution Services 2 03:54:35 132
47 Kinetic Power 2 03:55:16 136
48 Beers and Gears 2 03:55:35 138
49 Anderson Transport 1 2 03:56:04 142
50 Team Schuss 2 03:56:51 144
51 PAIN FREE DENTISTS..FATHER AND SON 2 03:57:28 148
52 i1 Solutions 2 03:58:06 151
53 TEAM CIOVITA 2 04:01:39 166
54 Turbonators 2 04:03:08 169
55 Denker Capital 2 04:03:54 172
56 Premium Boys 2 04:03:57 173
57 Cairnmead 2 04:04:51 175
58 Woolworths /Kwano 2 04:05:40 178
59 Off Piste 2 04:09:40 189
60 Woodcentre 2 04:10:02 190
61 ELITE STAR RACING 2 04:11:29 195
62 Access Management 2 04:11:37 198
63 Revolution Fit 2 04:11:58 200
64 Amperdaar 2 04:12:07 202
65 Namola 2 04:13:26 207
66 Timothy James Harlow Foundation 1 2 04:14:21 211
67 songo.info 2 04:14:56 214
68 CiM Automation 2 04:15:27 217
69 ISA 53 2 04:15:37 218
70 Seated & Cleated 2 04:17:22 227
71 Rookie Project 2 04:19:43 236
72 Honey Badgers 2 04:21:03 243
73 GO!Durban Cycle Academy 1 2 04:21:18 246
74 Sheldon MYW1 2 04:22:16 251
75 Seattle Coffee Co (The real men) 2 04:22:31 254
76 HOESPOEPENTRAP 2 04:24:00 259
77 TANSTAAFL 2 04:25:51 264
78 INNOVISE DX 2 04:26:09 265
79 De Hoop Mtb 2 04:28:09 272
80 ELRO 2 04:29:02 275
81 Espin House 2 04:31:03 279
82 Roderick MYW 3 2 04:31:16 280
83 63 Models 2 04:31:57 281
84 Dubbel trouble 2 04:33:34 287
85 Forrester 2 04:33:47 290
86 Ross-Kent 2 04:34:13 292
87 Crank Worx 2 04:35:24 298
88 Spire 2 04:36:05 300
89 Luda Capital 2 04:36:14 301
90 CYCLE-O-PATHS 2 04:37:29 304
91 Puma Namibia 2 04:37:44 306
92 Fincheck 2 04:43:18 321
93 Ashburton 2 2 04:44:53 326
94 GO!Durban Cycle Academy 2 2 04:47:27 335
95 HeroTel A - RVZ 2 04:49:54 345
96 Tebow 2 04:51:13 349
97 FNB Principal Investments 2 04:53:33 352
98 Khan&Fataar 2 04:54:47 354
99 dormakaba 2 2 04:56:25 360
100 Boost Boys 2 04:57:45 364
101 The Gruffalo's 2 04:57:58 365
102 Kermits return 2 04:58:16 367
103 Team Bantry 2 04:58:30 369
104 The Bomb Bankers 2 05:00:11 378
105 Belgian combo 2 05:00:50 379
106 Tight butts and sweaty nuts 2 05:02:11 384
107 WEC-Consult 2 05:03:02 385
108 Joeys Sunshine 2 05:03:11 386
109 Team Klameron 2 05:05:14 395
110 Bike Messengers 2 05:06:05 400
111 Rushton/Buhrmann 2 05:09:05 405
112 Riders on the Storm 2 05:11:17 408
113 Khaltsha Cycles 2 05:12:54 410
114 Alpha’s 2 05:13:19 413
115 NatSpur 2 05:14:54 418
116 Rockstars 2 05:15:07 419
117 VOLVO Trucks 2 05:15:23 421
118 Tribbes 2 05:16:14 423
119 The Whale Buddies 2 05:18:49 429
120 Beatsy Boys 2 05:28:10 439
121 Jamian MYW2 2 05:29:31 440
122 Twizza Twins 2 05:30:39 445
123 Spur crocks 2 05:32:09 449
124 Truck & Trailer 2 05:32:47 453
125 PR Engineering 2 05:34:35 458
126 Woolworths Team Supreme 2 05:35:51 461
127 Craftwerk Brewing 2 05:38:56 464
128 Spilo Express 2 05:40:15 466
129 SAXON 2 05:49:25 483
130 JCap Novices 2 05:54:58 487
131 2BIG 2 05:56:07 488
132 Hartman-Lintvelt 2 05:58:12 490
133 Grumpy old men 2 06:04:09 499
134 De Aar Trappers 2 06:08:46 502
135 MTB Buddies 2 06:08:50 503
136 HairRaisers 2 06:11:36 511
137 Huge Pain 2 06:28:37 520
138 VDV Eagles 2 06:31:20 522
139 Citricom 2 06:42:36 526
140 Forum 1 2 06:50:24 527
141 Figment 2 06:51:36 528
142 Gooi Mielies 2 06:51:56 530
143 Amabhubesi 2 08:33:58 540